Lid_Strength_Index
3 6 7 9 14 16 18 15 14 13 11 8 6 7 8 7 9 12 2 1 1 1 0 -0 -0 -1 -1 -1 -1 -1 -1 -1 -1 -1 -1 -1 -1 -1 -1 -1 -1 -1 -1 -1 -1 -1 -1 -1 -1
3 5 8 12 15 18 18 15 14 13 11 9 6 7 7 8 5 5 4 1 0 0 0 -0 -1 -1 -1 -1 -1 -1 -1 -1 -1 -1 -1 -1 -1 -1 -1 -1 -1 -1 -1 -1 -1 -1 -1 -1 -1
6 6 10 14 17 17 16 14 13 11 11 11 7 6 6 7 4 4 2 1 0 0 0 -0 -0 -1 -1 -1 -1 -1 -1 -1 -1 -1 -1 -1 -1 -1 -1 -1 -1 -1 -1 -1 -1 -1 -1 -1 -1
7 10 12 14 16 14 14 12 12 13 12 11 7 7 6 5 4 2 1 1 1 0 0 -0 -0 -0 -1 -1 -1 -1 -1 -1 -1 -1 -1 -1 -1 -1 -1 -1 -1 -1 -1 -1 -1 -1 -1 -1 -1
10 12 15 16 16 14 12 12 12 12 11 9 9 8 7 7 7 1 1 1 1 1 0 -0 -0 -0 -1 -1 -1 -1 -1 -1 -1 -1 -1 -1 -1 -1 -1 -1 -1 -1 -1 -1 -1 -1 -1 -1 -2
11 13 16 16 14 12 13 13 12 12 11 10 8 10 9 8 6 3 1 1 0 1 0 0 -0 -0 -1 -1 -1 -1 -1 -1 -1 -1 -1 -1 -1 -1 -1 -1 -1 -1 -1 -1 -1 -1 -1 -2 -2
13 14 16 16 14 13 12 11 12 12 12 11 10 11 10 8 5 2 1 1 1 0 0 0 -0 -0 -1 -1 -1 -1 -1 -1 -1 -0 -1 -1 -1 -1 -1 -1 -1 -1 -1 -1 -1 -1 -2 -2 -2
12 14 15 16 15 15 12 11 12 10 10 8 8 10 11 8 7 3 1 1 2 1 1 0 0 0 0 0 -1 -1 -1 -1 -1 -1 -1 -1 -1 -1 -1 -1 -1 -1 -1 -1 -1 -1 -1 -2 -2
12 15 16 16 14 13 12 12 10 9 9 9 8 9 8 7 7 7 4 2 2 2 2 1 0 0 -0 0 -0 -1 -1 -1 -1 -1 -1 -0 0 0 -0 -0 -1 -1 -1 -1 -1 -1 -1 -1 -1
14 16 15 13 13 13 12 12 11 10 10 10 9 8 7 7 7 8 6 4 4 3 2 1 1 0 0 -0 0 0 -0 -0 -0 -0 0 -0 -0 0 -0 -0 -1 -1 -1 -1 -1 -1 -1 -1 0
14 15 13 12 11 11 11 11 10 11 11 10 10 9 8 7 8 8 8 4 3 2 2 2 2 1 0 0 -0 0 -0 -0 -0 -0 -0 -0 0 0 0 0 0 0 -0 0 0 0 0 0 0
12 12 11 11 11 11 12 10 10 11 9 8 7 8 8 8 8 8 8 8 7 3 2 2 2 2 1 0 0 0 1 1 0 -0 0 1 1 0 0 1 0 0 0 0 0 0 0 0 0
13 11 10 9 10 11 10 10 11 10 8 8 8 8 8 7 8 8 7 7 7 3 2 2 3 2 2 2 0 0 0 0 0 0 -0 1 0 1 2 2 1 0 1 1 1 1 1 1 1
11 10 9 10 10 11 10 10 10 9 8 8 8 8 8 8 7 7 8 7 8 3 4 2 2 2 3 2 1 1 0 0 0 -0 -0 1 0 1 2 2 1 1 0 0 1 2 2 2 2
9 11 10 10 10 10 10 12 11 9 8 8 8 8 8 7 7 7 6 7 7 7 5 2 2 2 3 2 2 1 1 0 0 0 -0 -0 0 1 2 1 2 1 1 1 1 2 2 2 2
11 12 14 10 10 10 11 14 10 8 9 9 8 8 8 8 7 7 7 7 7 7 4 1 1 2 2 2 2 2 2 2 2 2 1 1 0 1 2 1 1 1 1 1 2 2 2 2 2
13 15 15 14 11 12 12 13 10 8 9 10 9 8 8 8 7 7 6 6 6 6 5 3 2 2 2 2 2 2 3 2 3 2 2 2 1 1 2 1 1 1 1 2 2 2 2 3 2
16 17 15 15 12 12 12 12 10 8 9 9 9 9 8 7 6 4 5 5 5 6 5 3 2 1 3 3 3 3 2 2 2 1 1 1 1 1 2 1 1 1 2 2 3 2 2 3 2
13 15 14 13 11 12 12 12 10 8 9 10 10 10 9 8 6 6 5 4 4 5 6 4 3 2 3 3 3 3 3 3 3 2 1 1 1 1 1 1 2 1 2 2 3 2 2 3 3
12 14 13 12 11 12 12 12 10 9 9 9 9 7 7 7 5 6 5 5 5 4 5 5 2 2 2 3 3 3 3 3 3 2 1 1 1 1 1 1 2 1 2 3 2 2 3 4 4
13 13 14 13 11 11 12 14 12 9 9 7 6 6 6 6 5 5 5 7 6 5 4 5 3 2 2 2 2 2 3 3 3 3 4 2 1 1 1 1 1 2 2 2 2 1 3 5 6
15 11 11 12 13 16 12 18 14 11 9 8 7 7 6 6 5 4 5 5 6 5 4 4 3 2 2 1 2 3 3 4 3 3 3 3 1 1 1 0 0 1 1 2 1 1 3 4 6
13 10 11 12 14 16 15 17 15 10 11 10 8 7 6 5 5 5 5 5 4 5 4 3 2 2 2 2 3 4 3 3 3 2 2 2 2 1 0 1 1 1 1 2 1 1 3 4 5
9 12 13 15 16 19 16 15 16 13 12 10 8 7 6 6 5 5 5 5 4 4 4 3 3 4 4 4 3 3 3 3 3 3 3 3 2 1 1 1 1 2 1 1 1 2 3 5 5
11 14 19 20 20 20 14 15 14 11 10 9 9 8 6 6 6 5 6 6 5 5 4 3 4 4 3 2 2 2 3 3 3 3 3 3 2 2 2 1 1 2 1 3 4 5 6 6 6
14 14 18 21 21 18 13 17 14 9 8 8 7 7 6 5 5 6 6 6 6 5 4 4 4 4 4 3 3 2 2 3 3 3 2 2 2 2 1 2 2 4 4 5 5 5 6 6 7
13 15 13 16 16 19 16 13 10 9 9 8 8 7 7 6 5 5 4 6 6 6 5 5 5 4 4 4 3 3 2 2 3 3 2 2 2 1 1 1 3 5 5 5 5 5 7 7 8
11 10 16 17 21 22 18 16 15 13 11 9 8 8 7 6 5 5 5 4 6 5 5 5 5 5 5 4 4 3 3 2 3 3 3 2 2 2 2 2 4 5 5 6 6 7 8 9 9
13 14 14 14 16 21 21 17 11 11 10 10 8 7 7 6 6 5 5 4 5 4 4 5 5 4 4 4 4 4 3 3 3 3 2 1 2 3 4 5 6 5 7 7 7 7 8 10 10
11 12 13 17 18 16 17 17 9 9 9 8 7 7 6 6 5 5 4 5 4 5 5 5 5 4 3 3 3 3 3 3 4 2 2 2 4 4 5 5 5 6 7 7 8 9 10 10 11